Location: Dos Palmas
(32.4468°N, 116.8732°W)
Time: 23:54:01
(UTC+00:00)

SL-16 R/B - Pass Details

Date: 20 June 2021
Orbit: 843 x 845 km, 71.0° (Epoch: 27 July)

Event Time Altitude Azimuth Distance (km) Brightness Sun altitude
Rises 03:38:43 0° 202° (SSW) 3,383 5.2 -8.2°
Reaches altitude 10° 03:41:09 10° 204° (SSW) 2,452 4.5 -8.6°
Maximum altitude 03:46:47 78° 291° (WNW) 865 2.4 -9.6°
Drops below altitude 10° 03:52:27 10° 17° (NNE) 2,467 4.9 -10.6°
Sets 03:54:54 0° 19° (NNE) 3,405 5.6 -11.0°
